Regional Weather Roundup
Issued by NWS

Home | Current Version | Previous Version | Graphics & Text | Print | Product List | Glossary On
Versions: 1 2 3 4 5 6 7 8 9 10 11 12 13 14 15 16 17 18 19 20 21 22 23 24 25 26 27 28 29 30 31 32 33 34 35 36 37 38 39 40 41 42 43 44 45 46 47 48 49 50
493
ASUS43 KIND 141209
RWRIN

WEATHER ROUNDUP FOR INDIANA
NATIONAL WEATHER SERVICE INDIANAPOLIS IN
700 AM EST THU DEC 14 2017

NOTE: "FAIR" INDICATES FEW OR NO CLOUDS BELOW 12,000 FEET WITH NO
SIGNIFICANT WEATHER AND/OR OBSTRUCTIONS TO VISIBILITY.

* - STATION DOES NOT REPORT WEATHER SUCH AS PRECIPITATION OR FOG.

+ - STATION NOT QUALITY CONTROLLED BY THE NATIONAL WEATHER SERVICE.
    USE DATA WITH CAUTION...ESPECIALLY DEWPOINT AND RELATIVE
    HUMIDITY OBSERVATIONS.

INZ001>003-010>013-019-020-141300-
NORTHWEST INDIANA

CITY           SKY/WX    TMP DP  RH WIND       PRES   REMARKS
GARY /AIRPORT/ FLURRIES  25  18  74 W12       29.97R WCI  14
KNOX *+        CLOUDY    18  10  73 E6        29.95R WCI   9
LA PORTE +     CLOUDY    17  11  75 SE6       29.96R WCI   9
6HR MIN TEMP:  17; 6HR MAX TEMP:  27;

MICHIGAN CITY+ CLOUDY    19   9  63 E5        29.97R WCI  13
MONTICELLO +   CLOUDY    24  15  70 E7        29.96R WCI  16
6HR MIN TEMP:  24; 6HR MAX TEMP:  30;

RENSSELAER +   LGT SNOW  27  19  74 CALM      29.97R
VALPARAISO     CLOUDY    22  16  78 E7        29.96R WCI  13
6HR MIN TEMP:  22; 6HR MAX TEMP:  30;


$$

LMZ046-743>745-141300-
SOUTHERN LAKE MICHIGAN

STATION/POSITION TIME  TEMP    WIND        PRES    WAVE
                       AIR SEA DIR/SP/G            HT
                 (UTC) (F)     (DEG/KT/KT) (MB)    (FT)
BURNS HARBOR     1140   25     120/  8/ 11 1014.6R
MICHIGAN CITY    1140   20      80/  9/ 12   N/A

$$

INZ004-005-014>016-021>024-141300-
NORTH CENTRAL INDIANA

CITY           SKY/WX    TMP DP  RH WIND       PRES   REMARKS
ELKHART        CLOUDY     7   3  85 CALM      29.96
GOSHEN         CLOUDY    10   6  84 CALM      29.95R
6HR MIN TEMP:   9; 6HR MAX TEMP:  20;

LOGANSPORT +   PTCLDY    18  12  79 N5        29.98R WCI  11
PERU/GRISSOM   PTCLDY    16  13  91 N3        29.95R
6HR MIN TEMP:  15; 6HR MAX TEMP:  29;

ROCHESTER +    CLOUDY    18  14  86 N7        29.97R WCI   8
SOUTH BEND     CLOUDY    13   8  81 E6        29.96R WCI   4
6HR MIN TEMP:  10; 6HR MAX TEMP:  18;

WARSAW +       CLOUDY    14  10  85 N5        29.94R WCI   6

$$

INZ006>009-017-018-025>027-141300-
NORTHEAST INDIANA

CITY           SKY/WX    TMP DP  RH WIND       PRES   REMARKS
AUBURN +       CLEAR     16  10  79 NW8       29.93R WCI   5
FORT WAYNE     MOCLDY    15  11  83 N9        29.93R WCI   3
6HR MIN TEMP:  15; 6HR MAX TEMP:  25;

HUNTINGTON +   CLEAR     17  13  84 N5        29.94R WCI  10
6HR MIN TEMP:  17; 6HR MAX TEMP:  26;

KENDALLVILLE + PTCLDY    12   8  87 N5        29.93R WCI   4

$$

INZ028-029-035-036-043>045-051>053-141300-
WEST CENTRAL INDIANA

CITY           SKY/WX    TMP DP  RH WIND       PRES   REMARKS
CRAWFORDSVL +  CLOUDY    27  19  72 N9        29.91R WCI  17
6HR MIN TEMP:  26; 6HR MAX TEMP:  28;

GREENCASTLE +  CLOUDY    28  19  69 N5        29.94R WCI  23
LAFAYETTE      CLOUDY    26  20  77 NE7       29.96R WCI  18
6HR MIN TEMP:  26; 6HR MAX TEMP:  30;

TERRE HAUTE    CLOUDY    29  19  66 NW9       29.96R WCI  20
6HR MIN TEMP:  28; 6HR MAX TEMP:  31;


$$

INZ030>032-037>040-046>048-054>057-064-065-141300-
CENTRAL INDIANA

CITY           SKY/WX    TMP DP  RH WIND       PRES   REMARKS
COLUMBUS       CLOUDY    28  16  59 N13       29.94  WCI  18
FRANKFORT +    CLOUDY    28  20  71 NE8       29.96R WCI  20
6HR MIN TEMP:  28; 6HR MAX TEMP:  32;

GREENWOOD *+   CLOUDY    31  20  64 N8        29.94R WCI  23
6HR MIN TEMP:  31; 6HR MAX TEMP:  33;

INDIANAPOLIS   CLOUDY    27  17  66 N12       29.94R WCI  17
6HR MIN TEMP:  27; 6HR MAX TEMP:  30;

-EAGLE CREEK   CLOUDY    27  16  63 N10       29.93R WCI  17
6HR MIN TEMP:  27; 6HR MAX TEMP:  30;

KOKOMO +       CLEAR     17  14  88 N7        29.96R WCI   8
6HR MIN TEMP:  17; 6HR MAX TEMP:  29; 6HR PCP: TRACE;

MARION +       PTCLDY    19  15  85 N3        29.96R
MT COMFORT *+  PTCLDY    19  16  86 N7        29.94R WCI  10
SHELBYVILLE    PTCLDY    24  13  62 N9        29.93R WCI  14
6HR MIN TEMP:  24; 6HR MAX TEMP:  32;

ZIONSVILLE +   MOCLDY    21  14  75 N9        29.95R WCI  11
6HR MIN TEMP:  21; 6HR MAX TEMP:  28;


$$

INZ033-034-041-042-049-050-058-059-141300-
EAST CENTRAL INDIANA

CITY           SKY/WX    TMP DP  RH WIND       PRES   REMARKS
MUNCIE         CLOUDY    21  15  78 N7        29.93R WCI  12
6HR MIN TEMP:  20; 6HR MAX TEMP:  31;

RICHMOND +     CLOUDY    21  18  86 NW5       29.92R WCI  15

$$

INZ060-061-067>069-081>083-085>088-141300-
SOUTHWEST INDIANA

CITY           SKY/WX    TMP DP  RH WIND       PRES   REMARKS
EVANSVILLE     PTCLDY    29  21  72 N9        29.98R WCI  20
6HR MIN TEMP:  29; 6HR MAX TEMP:  39;

HUNTINGBURG +  PTCLDY    26  20  77 NW7       29.96R WCI  18
6HR MIN TEMP:  26; 6HR MAX TEMP:  38;

WASHINGTON +   CLOUDY    29  20  68 NW7       29.95R WCI  22
6HR MIN TEMP:  28; 6HR MAX TEMP:  36;


$$

INZ062-063-066-070>080-084-089>092-141300-
SOUTH CENTRAL AND SOUTHEAST INDIANA

CITY           SKY/WX    TMP DP  RH WIND       PRES   REMARKS
BEDFORD +      CLOUDY    30  19  64 N5        29.92R WCI  25
BLOOMINGTON    CLOUDY    30  18  60 N7        29.92R WCI  23
6HR MIN TEMP:  29; 6HR MAX TEMP:  35;

MADISON *+     CLOUDY    32  19  59 N7        29.93R WCI  26
NORTH VERNON + CLOUDY    27  16  63 N12G18    29.93R WCI  16
SEYMOUR +      CLOUDY    32  19  59 N13       29.93R WCI  22

$$





USA.gov is the U.S. government's official web portal to all federal, state and local government web resources and services.